• In Hungary
  • List of Countries
  • For 7 days
  • Water Temperature
  • Satellite Maps
  • Weather Map
  • News
  • Weather Widgets
  • user-avatar
    Login

    Hourly Weather San José de Maipo

    Today, 21 October, Saturday

    Time Temperature Precipitation Wind Pressure Humidity
    00:00 +6°C° 0 mm 2 mps 607 mmHg 48%
    01:00 +4°C° 0 mm 3 mps 607 mmHg 45%
    02:00 +4°C° 0 mm 3 mps 607 mmHg 44%
    03:00 +4°C° 0 mm 3 mps 606 mmHg 42%
    04:00 +4°C° 0 mm 3 mps 606 mmHg 41%
    05:00 +7°C° 0 mm 2 mps 607 mmHg 38%
    06:00 +8°C° 0 mm 2 mps 608 mmHg 36%
    07:00 +10°C° 0 mm 2 mps 609 mmHg 34%
    08:00 +12°C° 0 mm 2 mps 610 mmHg 30%
    09:00 +14°C° 0 mm 2 mps 610 mmHg 26%
    10:00 +16°C° 0 mm 1 mps 611 mmHg 22%
    11:00 +17°C° 0 mm 2 mps 611 mmHg 19%
    12:00 +17°C° 0 mm 2 mps 611 mmHg 17%
    13:00 +18°C° 0 mm 2 mps 611 mmHg 14%
    14:00 +18°C° 0 mm 2 mps 611 mmHg 15%
    15:00 +18°C° 0 mm 2 mps 611 mmHg 16%
    16:00 +17°C° 0 mm 2 mps 611 mmHg 16%
    17:00 +16°C° 0 mm 2 mps 610 mmHg 20%
    18:00 +14°C° 0 mm 1 mps 610 mmHg 23%
    19:00 +12°C° 0 mm 1 mps 609 mmHg 26%
    20:00 +12°C° 0 mm 1 mps 609 mmHg 24%
    21:00 +12°C° 0 mm 1 mps 609 mmHg 21%
    22:00 +12°C° 0 mm 1 mps 610 mmHg 19%
    23:00 +11°C° 0 mm 1 mps 609 mmHg 18%

    Tomorrow, 22 October, Sunday

    Time Temperature Precipitation Wind Pressure Humidity
    00:00 +11°C° 0 mm 1 mps 609 mmHg 17%
    01:00 +11°C° 0 mm 1 mps 608 mmHg 16%
    02:00 +11°C° 0 mm 1 mps 608 mmHg 17%
    03:00 +10°C° 0 mm 1 mps 608 mmHg 18%
    04:00 +10°C° 0 mm 1 mps 608 mmHg 19%
    05:00 +10°C° 0 mm 2 mps 609 mmHg 20%
    06:00 +12°C° 0 mm 2 mps 609 mmHg 21%
    07:00 +14°C° 0 mm 2 mps 610 mmHg 22%
    08:00 +15°C° 0 mm 2 mps 610 mmHg 21%
    09:00 +16°C° 0 mm 2 mps 611 mmHg 20%
    10:00 +17°C° 0 mm 2 mps 611 mmHg 19%
    11:00 +18°C° 0 mm 3 mps 611 mmHg 21%
    12:00 +18°C° 0 mm 3 mps 611 mmHg 22%
    13:00 +18°C° 0 mm 3 mps 611 mmHg 23%
    14:00 +18°C° 0 mm 3 mps 610 mmHg 26%
    15:00 +17°C° 0 mm 3 mps 610 mmHg 30%
    16:00 +16°C° 0 mm 3 mps 609 mmHg 33%
    17:00 +15°C° 0 mm 2 mps 609 mmHg 39%
    18:00 +14°C° 0 mm 2 mps 609 mmHg 44%
    19:00 +13°C° 0 mm 1 mps 608 mmHg 49%
    20:00 +12°C° 0 mm 1 mps 608 mmHg 49%
    21:00 +12°C° 0 mm 1 mps 608 mmHg 48%
    22:00 +10°C° 0 mm 2 mps 608 mmHg 47%
    23:00 +10°C° 0 mm 2 mps 608 mmHg 45%

    Day after tomorrow, 23 October, Monday

    Time Temperature Precipitation Wind Pressure Humidity
    00:00 +10°C° 0 mm 2 mps 607 mmHg 43%
    01:00 +10°C° 0 mm 2 mps 607 mmHg 41%
    02:00 +9°C° 0 mm 2 mps 607 mmHg 40%
    03:00 +9°C° 0 mm 2 mps 607 mmHg 39%
    04:00 +9°C° 0 mm 2 mps 606 mmHg 39%
    05:00 +10°C° 0 mm 2 mps 607 mmHg 36%
    06:00 +12°C° 0 mm 2 mps 607 mmHg 34%
    07:00 +13°C° 0 mm 2 mps 608 mmHg 32%
    08:00 +14°C° 0 mm 2 mps 608 mmHg 30%
    09:00 +14°C° 0 mm 3 mps 609 mmHg 29%
    10:00 +16°C° 0 mm 3 mps 609 mmHg 27%
    11:00 +16°C° 0 mm 3 mps 609 mmHg 28%
    12:00 +17°C° 0 mm 4 mps 609 mmHg 29%
    13:00 +17°C° 0 mm 4 mps 609 mmHg 30%
    14:00 +15°C° 0 mm 4 mps 608 mmHg 34%
    15:00 +14°C° 0 mm 4 mps 608 mmHg 38%
    16:00 +14°C° 0 mm 3 mps 607 mmHg 42%
    17:00 +12°C° 0.1 mm 3 mps 607 mmHg 48%
    18:00 +12°C° 0.1 mm 2 mps 607 mmHg 54%
    19:00 +9°C° 0.1 mm 2 mps 607 mmHg 61%
    20:00 +9°C° 0 mm 2 mps 607 mmHg 60%
    21:00 +9°C° 0 mm 2 mps 607 mmHg 59%
    22:00 +9°C° 0 mm 1 mps 607 mmHg 59%
    23:00 +9°C° 0 mm 1 mps 607 mmHg 58%

    24 October, Tuesday

    Time Temperature Precipitation Wind Pressure Humidity
    00:00 +9°C° 0 mm 1 mps 607 mmHg 58%
    01:00 +9°C° 0 mm 1 mps 606 mmHg 57%
    02:00 +8°C° 0 mm 1 mps 606 mmHg 57%
    03:00 +8°C° 0 mm 1 mps 606 mmHg 56%
    04:00 +8°C° 0 mm 1 mps 606 mmHg 56%
    05:00 +9°C° 0 mm 1 mps 607 mmHg 51%
    06:00 +10°C° 0 mm 1 mps 607 mmHg 46%
    07:00 +10°C° 0 mm 2 mps 608 mmHg 42%
    08:00 +12°C° 0 mm 2 mps 608 mmHg 38%
    09:00 +12°C° 0 mm 3 mps 609 mmHg 35%
    10:00 +13°C° 0 mm 3 mps 609 mmHg 32%
    11:00 +14°C° 0 mm 3 mps 609 mmHg 32%
    12:00 +14°C° 0 mm 3 mps 609 mmHg 32%
    13:00 +14°C° 0 mm 4 mps 609 mmHg 31%
    14:00 +14°C° 0 mm 3 mps 608 mmHg 35%
    15:00 +13°C° 0 mm 3 mps 608 mmHg 38%
    16:00 +13°C° 0 mm 3 mps 608 mmHg 41%
    17:00 +11°C° 0 mm 3 mps 608 mmHg 50%
    18:00 +10°C° 0 mm 2 mps 607 mmHg 58%
    19:00 +9°C° 0 mm 2 mps 607 mmHg 67%
    20:00 +9°C° 0 mm 1 mps 607 mmHg 68%
    21:00 +9°C° 0 mm 1 mps 607 mmHg 70%
    22:00 +8°C° 0 mm 1 mps 606 mmHg 71%
    23:00 +8°C° 0 mm 1 mps 606 mmHg 71%

    25 October, Wednesday

    Time Temperature Precipitation Wind Pressure Humidity
    00:00 +8°C° 0 mm 1 mps 606 mmHg 70%
    01:00 +8°C° 0 mm 1 mps 605 mmHg 70%
    02:00 +7°C° 0 mm 1 mps 605 mmHg 69%
    03:00 +7°C° 0 mm 1 mps 605 mmHg 68%
    04:00 +7°C° 0 mm 1 mps 605 mmHg 67%
    05:00 +8°C° 0 mm 1 mps 605 mmHg 60%
    06:00 +9°C° 0 mm 1 mps 606 mmHg 52%
    07:00 +10°C° 0 mm 1 mps 607 mmHg 44%
    08:00 +12°C° 0 mm 2 mps 607 mmHg 40%
    09:00 +13°C° 0 mm 2 mps 608 mmHg 35%
    10:00 +13°C° 0 mm 3 mps 608 mmHg 31%
    11:00 +14°C° 0 mm 3 mps 608 mmHg 30%
    12:00 +16°C° 0 mm 3 mps 608 mmHg 30%
    13:00 +16°C° 0 mm 3 mps 608 mmHg 29%
    14:00 +16°C° 0 mm 3 mps 608 mmHg 32%
    15:00 +14°C° 0 mm 3 mps 608 mmHg 35%
    16:00 +14°C° 0 mm 3 mps 608 mmHg 38%
    17:00 +13°C° 0 mm 3 mps 608 mmHg 46%
    18:00 +12°C° 0 mm 2 mps 608 mmHg 54%
    19:00 +11°C° 0 mm 1 mps 608 mmHg 62%
    20:00 +10°C° 0 mm 1 mps 607 mmHg 64%
    21:00 +10°C° 0 mm 1 mps 607 mmHg 66%
    22:00 +9°C° 0 mm 1 mps 607 mmHg 68%
    23:00 +9°C° 0 mm 1 mps 606 mmHg 67%

    26 October, Thursday

    Time Temperature Precipitation Wind Pressure Humidity
    00:00 +9°C° 0 mm 1 mps 606 mmHg 67%
    01:00 +9°C° 0 mm 1 mps 606 mmHg 66%
    02:00 +8°C° 0 mm 1 mps 606 mmHg 65%
    03:00 +8°C° 0 mm 1 mps 606 mmHg 63%
    04:00 +8°C° 0 mm 1 mps 606 mmHg 61%
    05:00 +10°C° 0 mm 1 mps 606 mmHg 52%
    06:00 +11°C° 0 mm 1 mps 607 mmHg 44%
    07:00 +13°C° 0 mm 1 mps 608 mmHg 36%
    08:00 +14°C° 0 mm 2 mps 608 mmHg 32%
    09:00 +15°C° 0 mm 2 mps 608 mmHg 28%
    10:00 +17°C° 0 mm 3 mps 609 mmHg 24%
    11:00 +17°C° 0 mm 3 mps 609 mmHg 24%
    12:00 +18°C° 0 mm 3 mps 609 mmHg 23%
    13:00 +19°C° 0 mm 3 mps 609 mmHg 23%
    14:00 +18°C° 0 mm 3 mps 609 mmHg 26%
    15:00 +17°C° 0 mm 3 mps 609 mmHg 29%
    16:00 +17°C° 0 mm 3 mps 609 mmHg 33%
    17:00 +14°C° 0 mm 3 mps 608 mmHg 41%
    18:00 +14°C° 0 mm 2 mps 608 mmHg 50%
    19:00 +12°C° 0 mm 1 mps 608 mmHg 58%
    20:00 +11°C° 0 mm 1 mps 608 mmHg 61%
    21:00 +11°C° 0 mm 1 mps 607 mmHg 64%
    22:00 +10°C° 0 mm 1 mps 607 mmHg 66%
    23:00 +10°C° 0 mm 1 mps 607 mmHg 67%
    Show more